Weather History for EGWU - March, 2013

Change the Weather History Date:

Sunday, March 31, 2013

  Actual Average Record
Temperature  
Mean Temperature 33 °F -  
Max Temperature 43 °F 56 °F 68 °F (1999)
Min Temperature 23 °F 41 °F 23 °F (2013)
Degree Days  
Heating Degree Days 32    
Moisture  
Dew Point 23 °F    
Average Humidity 63    
Maximum Humidity 93    
Minimum Humidity 32    
Precipitation  
Precipitation 0.00 in - - ()
Sea Level Pressure  
Sea Level Pressure 29.95 in    
Wind  
Wind Speed 6 mph ()    
Max Wind Speed 13 mph    
Max Gust Speed -    
Visibility 7.8 miles    
Events      
Averages and records for this station are not official NWS values.
T = Trace of Precipitation, MM = Missing Value Source: Averaged Metar Reports

Daily Weather History Graph

Daily Weather History Graph

Search for Another Location

Airport or City:

Trip Planner

Search our weather history database for the weather conditions in past years. The results will help you decide how hot, cold, wet, or windy it might be!

Date:

Astronomy

Mar. 31, 2013 Rise Set
Actual Time 6:39 AM BST 7:33 PM BST
Civil Twilight 6:05 AM BST 8:07 PM BST
Nautical Twilight 5:24 AM BST 8:48 PM BST
Astronomical Twilight 4:41 AM BST 9:32 PM BST
Moon No Moon Rise 8:43 AM BST (3/31)
Length of Visible Light 14h 02m
Length of Day
12h 54m
Waning Gibbous, 80% of the Moon is Illuminated
Mar 31
Waning Gibbous
Apr 3
Last Quarter
Apr 10
New
Apr 18
First Quarter
Apr 25
Full

Hourly Weather History & Observations

Time (BST) Temp. Windchill Dew Point Humidity Pressure Visibility Wind Dir Wind Speed Gust Speed Precip Events Conditions
12:50 AM 30.2 °F 25.4 °F 24.8 °F 80% 29.98 in 6.2 mi NE 4.6 mph - N/A   Unknown
2:50 AM 28.4 °F 23.3 °F 24.8 °F 86% 29.98 in 6.2 mi NNE 4.6 mph - N/A   Unknown
3:50 AM 27 °F - 24 °F 83% 29.99 in 9 mi South 1.2 mph - -  
3:50 AM 26.6 °F - 24.8 °F 93% 29.98 in 6.2 mi South 1.2 mph - N/A   Unknown
4:50 AM 24.8 °F 20.5 °F 21.2 °F 86% 29.98 in 6.2 mi NNW 3.5 mph - N/A   Unknown
5:50 AM 24.8 °F 19.1 °F 23.0 °F 93% 29.98 in 6.2 mi NNE 4.6 mph - N/A   Unknown
6:50 AM 24 °F - 21 °F 83% 30.00 in 14 mi North 4.6 mph - -   Scattered Clouds
6:50 AM 23.0 °F 17.0 °F 21.2 °F 93% 29.98 in 6.2 mi North 4.6 mph - N/A   Partly Cloudy
7:50 AM 30.2 °F 25.4 °F 24.8 °F 80% 29.98 in 6.2 mi NE 4.6 mph - N/A   Partly Cloudy
8:50 AM 35.6 °F 28.0 °F 26.6 °F 70% 29.98 in 6.2 mi ENE 10.4 mph - N/A   Partly Cloudy
9:50 AM 38 °F - 25 °F 46% 29.99 in 25 mi East 11.5 mph - -   Scattered Clouds
9:50 AM 37.4 °F 29.8 °F 24.8 °F 60% 29.98 in 6.2 mi East 11.5 mph - N/A   Partly Cloudy
10:50 AM 39.2 °F 33.0 °F 19.4 °F 45% 29.98 in 6.2 mi East 9.2 mph - N/A   Scattered Clouds
11:50 AM 39.2 °F 32.5 °F 21.2 °F 49% 29.98 in 6.2 mi NE 10.4 mph - N/A   Mostly Cloudy
12:50 PM 40 °F - 21 °F 32% 29.97 in 31 mi East 9.2 mph - -   Mostly Cloudy
12:50 PM 41.0 °F 35.2 °F 21.2 °F 45% 29.95 in 6.2 mi East 9.2 mph - N/A   Mostly Cloudy
1:50 PM 42.8 °F 38.6 °F 19.4 °F 39% 29.95 in 6.2 mi East 6.9 mph - N/A   Mostly Cloudy
2:50 PM 41.0 °F 35.2 °F 15.8 °F 36% 29.92 in 6.2 mi ENE 9.2 mph - N/A   Mostly Cloudy
3:50 PM 39 °F - 23 °F 39% 29.94 in 19 mi East 10.4 mph - -   Mostly Cloudy
3:50 PM 39.2 °F 32.5 °F 23.0 °F 52% 29.92 in 6.2 mi East 10.4 mph - N/A   Mostly Cloudy
4:50 PM 42.8 °F 38.0 °F 17.6 °F 36% 29.92 in 6.2 mi East 8.1 mph - N/A   Mostly Cloudy
5:50 PM 39.2 °F 32.0 °F 19.4 °F 45% 29.92 in 6.2 mi East 11.5 mph - N/A   Mostly Cloudy
6:50 PM 39 °F - 20 °F 32% 29.92 in 19 mi East 12.7 mph - -   Mostly Cloudy
6:50 PM 39.2 °F 31.6 °F 19.4 °F 45% 29.92 in 6.2 mi East 12.7 mph - N/A   Mostly Cloudy
7:50 PM 39.2 °F 32.5 °F 23.0 °F 52% 29.92 in 6.2 mi East 10.4 mph - N/A   Overcast
8:50 PM 37.4 °F 30.3 °F 26.6 °F 65% 29.92 in 6.2 mi East 10.4 mph - N/A   Mostly Cloudy
9:50 PM 35 °F - 28 °F 66% 29.93 in 25 mi East 12.7 mph - -  
9:50 PM 35.6 °F 27.1 °F 28.4 °F 75% 29.92 in 6.2 mi East 12.7 mph - N/A   Unknown
10:50 PM 33.8 °F 27.0 °F 28.4 °F 81% 29.92 in 6.2 mi East 8.1 mph - N/A   Partly Cloudy
11:50 PM 32.0 °F 24.8 °F 26.6 °F 80% 29.89 in 6.2 mi East 8.1 mph - N/A   Partly Cloudy
12:50 AM 33 °F - 27 °F 70% 29.91 in 16 mi ENE 8.1 mph - -   Mostly Cloudy
12:50 AM 33.8 °F 27.0 °F 26.6 °F 75% 29.89 in 6.2 mi ENE 8.1 mph - N/A   Mostly Cloudy